Weather in Kuyar

Russia / Mari El Republic     56°32′59″N   47°59′11″E
temp.,
°C
wind,
m/s
gust,
m/s
humid.,
%
clouds,
%
prec.,
mm/h
press.,
hPa
HPBL,
m
28 september, tue
tue2800:00+3ene4118711 0.0 1024696
03:00+1ne411904 0.0 1026352
06:000ne39934 0.0 1028256
09:00+4ne47706 0.0 1028530
12:00+8ne465083 0.0 10281135
15:00+9ne46475 0.0 10281185
18:00+4nne387049 0.0 1030150
21:00+3nne2675100 0.0 1031115
29 september, wed
wed2900:00+2nne247765 0.0 103185
03:00+1n24845 0.0 103170
06:000n24895 0.0 103263
09:00+6nne346399 0.0 1032422
12:00+9nne344976 0.0 10321107
15:00+9n344819 0.0 10311300
18:00+5n22735 0.0 103121
21:00+4nne228094 0.0 103220
30 september, thu
thu3000:00+5nne1180100 0.0 103212
03:00+6wnw1281100 0.0 103245
06:00+5nw238999 0.0 1032104
09:00+8wnw237746 0.0 1032426
12:00+11nw236194 0.0 10311073
15:00+10wnw3566100 0.0 1030674
18:00+8w278089 0.0 1030185
21:00+8w2681100 0.0 1030164
1 october, fri
fri100:00+7nw24945 0.0 103092
03:00+6nnw23965 0.0 103055
06:00+5nnw24965 0.0 103076
09:00+10nnw247512 0.0 1031372
12:00+13nnw236163 0.0 1030823
15:00+14nw345957 0.0 1030958
18:00+9nw227763 0.0 103033
21:00+8nnw22845 0.0 103123
2 october, sat
sat200:00+7nw229057 0.0 103112
03:00+6nw11946 0.0 103211
06:00+6wnw229694 0.0 103219
09:00+10nw237967 0.0 1032303
12:00+14nw236548 0.0 1032894
15:00+15nw2360100 0.0 10311226
18:00+13wnw1269100 0.0 103217
21:00+13w2266100 0.0 103320